<?xml version="1.0" encoding="UTF-8" standalone="no" ?>
<gpx xmlns="http://www.topografix.com/GPX/1/1" xmlns:xsi="http://www.w3.org/2001/XMLSchema-instance" xsi:schemaLocation="http://www.topografix.com/GPX/1/1 http://www.topografix.com/GPX/1/1/gpx.xsd" version="1.1" creator="VisuGPX - https://www.visugpx.com">
  <metadata>
    <name>Les Crêtes du Rozier, au départ de La Roche-Saint-Secret (26)</name>
    <desc><![CDATA[Sortie du 20 février 2011 au programme du SCLapalud]]></desc>
  </metadata>
  <trk>
    <name><![CDATA[ACTIVE LOG]]></name>
    <trkseg>
      <trkpt lat="44.47808" lon="5.02881">
        <ele>355.825195</ele>
        <time>2010-12-27T12:10:08Z</time>
      </trkpt>
      <trkpt lat="44.4785" lon="5.029">
        <ele>356.786377</ele>
        <time>2010-12-27T12:10:08Z</time>
      </trkpt>
      <trkpt lat="44.47977" lon="5.02873">
        <ele>346.212036</ele>
        <time>2010-12-27T12:10:08Z</time>
      </trkpt>
      <trkpt lat="44.48009" lon="5.02821">
        <ele>339.963379</ele>
        <time>2010-12-27T12:10:08Z</time>
      </trkpt>
      <trkpt lat="44.48061" lon="5.02731">
        <ele>342.84729</ele>
        <time>2010-12-27T12:10:08Z</time>
      </trkpt>
      <trkpt lat="44.48142" lon="5.02638">
        <ele>348.134644</ele>
        <time>2010-12-27T12:10:08Z</time>
      </trkpt>
      <trkpt lat="44.48225" lon="5.02472">
        <ele>354.86377</ele>
        <time>2010-12-27T12:10:08Z</time>
      </trkpt>
      <trkpt lat="44.48343" lon="5.02511">
        <ele>360.151123</ele>
        <time>2010-12-27T12:10:08Z</time>
      </trkpt>
      <trkpt lat="44.48411" lon="5.02548">
        <ele>360.151123</ele>
        <time>2010-12-27T12:10:08Z</time>
      </trkpt>
      <trkpt lat="44.48492" lon="5.02545">
        <ele>363.996338</ele>
        <time>2010-12-27T12:10:08Z</time>
      </trkpt>
      <trkpt lat="44.48578" lon="5.02612">
        <ele>361.112427</ele>
        <time>2010-12-27T12:10:08Z</time>
      </trkpt>
      <trkpt lat="44.48615" lon="5.02677">
        <ele>358.228394</ele>
        <time>2010-12-27T12:10:08Z</time>
      </trkpt>
      <trkpt lat="44.48763" lon="5.02754">
        <ele>362.07373</ele>
        <time>2010-12-27T12:10:08Z</time>
      </trkpt>
      <trkpt lat="44.48842" lon="5.02811">
        <ele>361.112427</ele>
        <time>2010-12-27T12:10:08Z</time>
      </trkpt>
      <trkpt lat="44.48877" lon="5.02863">
        <ele>361.112427</ele>
        <time>2010-12-27T12:10:08Z</time>
      </trkpt>
      <trkpt lat="44.48931" lon="5.02885">
        <ele>363.996338</ele>
        <time>2010-12-27T12:10:08Z</time>
      </trkpt>
      <trkpt lat="44.48972" lon="5.02954">
        <ele>363.035034</ele>
        <time>2010-12-27T12:10:08Z</time>
      </trkpt>
      <trkpt lat="44.49017" lon="5.03046">
        <ele>362.07373</ele>
        <time>2010-12-27T12:10:08Z</time>
      </trkpt>
      <trkpt lat="44.49046" lon="5.03044">
        <ele>363.035034</ele>
        <time>2010-12-27T12:10:08Z</time>
      </trkpt>
      <trkpt lat="44.4914" lon="5.02975">
        <ele>372.16748</ele>
        <time>2010-12-27T12:10:08Z</time>
      </trkpt>
      <trkpt lat="44.4917" lon="5.02953">
        <ele>375.051514</ele>
        <time>2010-12-27T12:10:08Z</time>
      </trkpt>
      <trkpt lat="44.49224" lon="5.02983">
        <ele>377.935425</ele>
        <time>2010-12-27T12:10:08Z</time>
      </trkpt>
      <trkpt lat="44.49313" lon="5.0303">
        <ele>379.858032</ele>
        <time>2010-12-27T12:10:08Z</time>
      </trkpt>
      <trkpt lat="44.49369" lon="5.03079">
        <ele>376.974243</ele>
        <time>2010-12-27T12:10:08Z</time>
      </trkpt>
      <trkpt lat="44.49376" lon="5.0308">
        <ele>376.974243</ele>
        <time>2010-12-27T12:10:08Z</time>
      </trkpt>
      <trkpt lat="44.49406" lon="5.03041">
        <ele>380.819458</ele>
        <time>2010-12-27T12:10:08Z</time>
      </trkpt>
      <trkpt lat="44.49419" lon="5.03068">
        <ele>381.78064</ele>
        <time>2010-12-27T12:10:08Z</time>
      </trkpt>
      <trkpt lat="44.49437" lon="5.03136">
        <ele>384.184082</ele>
        <time>2010-12-27T12:10:08Z</time>
      </trkpt>
      <trkpt lat="44.49458" lon="5.03147">
        <ele>387.067993</ele>
        <time>2010-12-27T12:10:08Z</time>
      </trkpt>
      <trkpt lat="44.49507" lon="5.03116">
        <ele>395.239136</ele>
        <time>2010-12-27T12:10:08Z</time>
      </trkpt>
      <trkpt lat="44.49521" lon="5.03103">
        <ele>400.045898</ele>
        <time>2010-12-27T12:10:08Z</time>
      </trkpt>
      <trkpt lat="44.49562" lon="5.03105">
        <ele>402.929688</ele>
        <time>2010-12-27T12:10:08Z</time>
      </trkpt>
      <trkpt lat="44.49574" lon="5.03086">
        <ele>405.813721</ele>
        <time>2010-12-27T12:10:08Z</time>
      </trkpt>
      <trkpt lat="44.49575" lon="5.03059">
        <ele>410.139648</ele>
        <time>2010-12-27T12:10:08Z</time>
      </trkpt>
      <trkpt lat="44.49542" lon="5.03024">
        <ele>415.907471</ele>
        <time>2010-12-27T12:10:08Z</time>
      </trkpt>
      <trkpt lat="44.49529" lon="5.02984">
        <ele>415.907471</ele>
        <time>2010-12-27T12:10:08Z</time>
      </trkpt>
      <trkpt lat="44.49543" lon="5.02881">
        <ele>413.984863</ele>
        <time>2010-12-27T12:10:08Z</time>
      </trkpt>
      <trkpt lat="44.49575" lon="5.02866">
        <ele>423.117432</ele>
        <time>2010-12-27T12:10:08Z</time>
      </trkpt>
      <trkpt lat="44.49592" lon="5.02824">
        <ele>426.001343</ele>
        <time>2010-12-27T12:10:08Z</time>
      </trkpt>
      <trkpt lat="44.49567" lon="5.02783">
        <ele>411.100952</ele>
        <time>2010-12-27T12:10:08Z</time>
      </trkpt>
      <trkpt lat="44.49596" lon="5.02666">
        <ele>418.791504</ele>
        <time>2010-12-27T12:10:08Z</time>
      </trkpt>
      <trkpt lat="44.49588" lon="5.02529">
        <ele>454.84082</ele>
        <time>2010-12-27T12:10:08Z</time>
      </trkpt>
      <trkpt lat="44.49591" lon="5.02403">
        <ele>463.012085</ele>
        <time>2010-12-27T12:10:08Z</time>
      </trkpt>
      <trkpt lat="44.49593" lon="5.02323">
        <ele>463.973389</ele>
        <time>2010-12-27T12:10:08Z</time>
      </trkpt>
      <trkpt lat="44.49596" lon="5.02283">
        <ele>463.012085</ele>
        <time>2010-12-27T12:10:08Z</time>
      </trkpt>
      <trkpt lat="44.49638" lon="5.02239">
        <ele>473.106079</ele>
        <time>2010-12-27T12:10:08Z</time>
      </trkpt>
      <trkpt lat="44.49686" lon="5.02214">
        <ele>482.238525</ele>
        <time>2010-12-27T12:10:08Z</time>
      </trkpt>
      <trkpt lat="44.49738" lon="5.022">
        <ele>492.812988</ele>
        <time>2010-12-27T12:10:08Z</time>
      </trkpt>
      <trkpt lat="44.49765" lon="5.02083">
        <ele>504.829468</ele>
        <time>2010-12-27T12:10:08Z</time>
      </trkpt>
      <trkpt lat="44.49766" lon="5.02066">
        <ele>505.790894</ele>
        <time>2010-12-27T12:10:08Z</time>
      </trkpt>
      <trkpt lat="44.49812" lon="5.02025">
        <ele>516.845947</ele>
        <time>2010-12-27T12:10:08Z</time>
      </trkpt>
      <trkpt lat="44.49818" lon="5.01972">
        <ele>520.210571</ele>
        <time>2010-12-27T12:10:08Z</time>
      </trkpt>
      <trkpt lat="44.49848" lon="5.01894">
        <ele>525.978394</ele>
        <time>2010-12-27T12:10:08Z</time>
      </trkpt>
      <trkpt lat="44.49822" lon="5.01845">
        <ele>525.017212</ele>
        <time>2010-12-27T12:10:08Z</time>
      </trkpt>
      <trkpt lat="44.49809" lon="5.01787">
        <ele>528.862549</ele>
        <time>2010-12-27T12:10:08Z</time>
      </trkpt>
      <trkpt lat="44.49797" lon="5.01697">
        <ele>534.149658</ele>
        <time>2010-12-27T12:10:08Z</time>
      </trkpt>
      <trkpt lat="44.49774" lon="5.01576">
        <ele>536.072388</ele>
        <time>2010-12-27T12:10:08Z</time>
      </trkpt>
      <trkpt lat="44.49783" lon="5.01507">
        <ele>538.956299</ele>
        <time>2010-12-27T12:10:08Z</time>
      </trkpt>
      <trkpt lat="44.49758" lon="5.0149">
        <ele>536.072388</ele>
        <time>2010-12-27T12:10:08Z</time>
      </trkpt>
      <trkpt lat="44.49733" lon="5.01469">
        <ele>536.072388</ele>
        <time>2010-12-27T12:10:08Z</time>
      </trkpt>
      <trkpt lat="44.49693" lon="5.01444">
        <ele>537.994995</ele>
        <time>2010-12-27T12:10:08Z</time>
      </trkpt>
      <trkpt lat="44.49672" lon="5.01416">
        <ele>540.878906</ele>
        <time>2010-12-27T12:10:08Z</time>
      </trkpt>
      <trkpt lat="44.49659" lon="5.01375">
        <ele>542.801514</ele>
        <time>2010-12-27T12:10:08Z</time>
      </trkpt>
      <trkpt lat="44.4966" lon="5.01322">
        <ele>545.204834</ele>
        <time>2010-12-27T12:10:08Z</time>
      </trkpt>
      <trkpt lat="44.49651" lon="5.01289">
        <ele>545.204834</ele>
        <time>2010-12-27T12:10:08Z</time>
      </trkpt>
      <trkpt lat="44.49662" lon="5.01246">
        <ele>549.050049</ele>
        <time>2010-12-27T12:10:08Z</time>
      </trkpt>
      <trkpt lat="44.49622" lon="5.01234">
        <ele>542.801514</ele>
        <time>2010-12-27T12:10:08Z</time>
      </trkpt>
      <trkpt lat="44.49626" lon="5.01144">
        <ele>545.204834</ele>
        <time>2010-12-27T12:10:08Z</time>
      </trkpt>
      <trkpt lat="44.49628" lon="5.01075">
        <ele>543.762817</ele>
        <time>2010-12-27T12:10:08Z</time>
      </trkpt>
      <trkpt lat="44.49631" lon="5.01038">
        <ele>541.84021</ele>
        <time>2010-12-27T12:10:08Z</time>
      </trkpt>
      <trkpt lat="44.49646" lon="5.01002">
        <ele>543.762817</ele>
        <time>2010-12-27T12:10:08Z</time>
      </trkpt>
      <trkpt lat="44.49643" lon="5.00949">
        <ele>545.204834</ele>
        <time>2010-12-27T12:10:08Z</time>
      </trkpt>
      <trkpt lat="44.49623" lon="5.00878">
        <ele>548.088867</ele>
        <time>2010-12-27T12:10:08Z</time>
      </trkpt>
      <trkpt lat="44.4964" lon="5.00772">
        <ele>554.817871</ele>
        <time>2010-12-27T12:10:08Z</time>
      </trkpt>
      <trkpt lat="44.49647" lon="5.007">
        <ele>560.105225</ele>
        <time>2010-12-27T12:10:08Z</time>
      </trkpt>
      <trkpt lat="44.49629" lon="5.00632">
        <ele>562.989258</ele>
        <time>2010-12-27T12:10:08Z</time>
      </trkpt>
      <trkpt lat="44.49586" lon="5.00564">
        <ele>559.144043</ele>
        <time>2010-12-27T12:10:08Z</time>
      </trkpt>
      <trkpt lat="44.49596" lon="5.00527">
        <ele>559.144043</ele>
        <time>2010-12-27T12:10:08Z</time>
      </trkpt>
      <trkpt lat="44.49633" lon="5.00489">
        <ele>565.873291</ele>
        <time>2010-12-27T12:10:08Z</time>
      </trkpt>
      <trkpt lat="44.49599" lon="5.00487">
        <ele>560.105225</ele>
        <time>2010-12-27T12:10:08Z</time>
      </trkpt>
      <trkpt lat="44.49564" lon="5.00389">
        <ele>558.182861</ele>
        <time>2010-12-27T12:10:08Z</time>
      </trkpt>
      <trkpt lat="44.49583" lon="5.0036">
        <ele>562.028076</ele>
        <time>2010-12-27T12:10:08Z</time>
      </trkpt>
      <trkpt lat="44.49606" lon="5.00315">
        <ele>566.834473</ele>
        <time>2010-12-27T12:10:08Z</time>
      </trkpt>
      <trkpt lat="44.49577" lon="5.0031">
        <ele>563.950439</ele>
        <time>2010-12-27T12:10:08Z</time>
      </trkpt>
      <trkpt lat="44.49593" lon="5.00281">
        <ele>571.1604</ele>
        <time>2010-12-27T12:10:08Z</time>
      </trkpt>
      <trkpt lat="44.49624" lon="5.00259">
        <ele>576.928467</ele>
        <time>2010-12-27T12:10:08Z</time>
      </trkpt>
      <trkpt lat="44.49636" lon="5.00236">
        <ele>583.176758</ele>
        <time>2010-12-27T12:10:08Z</time>
      </trkpt>
      <trkpt lat="44.49618" lon="5.00202">
        <ele>589.90625</ele>
        <time>2010-12-27T12:10:08Z</time>
      </trkpt>
      <trkpt lat="44.49558" lon="5.00139">
        <ele>609.132568</ele>
        <time>2010-12-27T12:10:08Z</time>
      </trkpt>
      <trkpt lat="44.49513" lon="5.00124">
        <ele>613.938965</ele>
        <time>2010-12-27T12:10:08Z</time>
      </trkpt>
      <trkpt lat="44.49454" lon="5.00101">
        <ele>624.994385</ele>
        <time>2010-12-27T12:10:08Z</time>
      </trkpt>
      <trkpt lat="44.49366" lon="5.00074">
        <ele>650.949707</ele>
        <time>2010-12-27T12:10:08Z</time>
      </trkpt>
      <trkpt lat="44.49261" lon="5.00162">
        <ele>641.817383</ele>
        <time>2010-12-27T12:10:08Z</time>
      </trkpt>
      <trkpt lat="44.4919" lon="5.00208">
        <ele>640.855957</ele>
        <time>2010-12-27T12:10:08Z</time>
      </trkpt>
      <trkpt lat="44.49125" lon="5.00248">
        <ele>637.972168</ele>
        <time>2010-12-27T12:10:08Z</time>
      </trkpt>
      <trkpt lat="44.49072" lon="5.00279">
        <ele>640.855957</ele>
        <time>2010-12-27T12:10:08Z</time>
      </trkpt>
      <trkpt lat="44.49025" lon="5.00334">
        <ele>632.204102</ele>
        <time>2010-12-27T12:10:08Z</time>
      </trkpt>
      <trkpt lat="44.48939" lon="5.00376">
        <ele>641.817383</ele>
        <time>2010-12-27T12:10:08Z</time>
      </trkpt>
      <trkpt lat="44.48867" lon="5.00406">
        <ele>651.911133</ele>
        <time>2010-12-27T12:10:08Z</time>
      </trkpt>
      <trkpt lat="44.48784" lon="5.00472">
        <ele>651.911133</ele>
        <time>2010-12-27T12:10:08Z</time>
      </trkpt>
      <trkpt lat="44.4875" lon="5.0052">
        <ele>646.143311</ele>
        <time>2010-12-27T12:10:08Z</time>
      </trkpt>
      <trkpt lat="44.48705" lon="5.00568">
        <ele>636.049561</ele>
        <time>2010-12-27T12:10:08Z</time>
      </trkpt>
      <trkpt lat="44.48612" lon="5.0058">
        <ele>650.949707</ele>
        <time>2010-12-27T12:10:08Z</time>
      </trkpt>
      <trkpt lat="44.48511" lon="5.00618">
        <ele>649.0271</ele>
        <time>2010-12-27T12:10:08Z</time>
      </trkpt>
      <trkpt lat="44.48426" lon="5.00671">
        <ele>648.065918</ele>
        <time>2010-12-27T12:10:08Z</time>
      </trkpt>
      <trkpt lat="44.48379" lon="5.00675">
        <ele>653.833984</ele>
        <time>2010-12-27T12:10:08Z</time>
      </trkpt>
      <trkpt lat="44.48313" lon="5.00712">
        <ele>649.988525</ele>
        <time>2010-12-27T12:10:08Z</time>
      </trkpt>
      <trkpt lat="44.48267" lon="5.00806">
        <ele>647.104492</ele>
        <time>2010-12-27T12:10:08Z</time>
      </trkpt>
      <trkpt lat="44.48223" lon="5.00838">
        <ele>650.949707</ele>
        <time>2010-12-27T12:10:08Z</time>
      </trkpt>
      <trkpt lat="44.48187" lon="5.00859">
        <ele>650.949707</ele>
        <time>2010-12-27T12:10:08Z</time>
      </trkpt>
      <trkpt lat="44.4813" lon="5.00873">
        <ele>651.911133</ele>
        <time>2010-12-27T12:10:08Z</time>
      </trkpt>
      <trkpt lat="44.48091" lon="5.00871">
        <ele>651.911133</ele>
        <time>2010-12-27T12:10:08Z</time>
      </trkpt>
      <trkpt lat="44.48062" lon="5.00896">
        <ele>645.181885</ele>
        <time>2010-12-27T12:10:08Z</time>
      </trkpt>
      <trkpt lat="44.48038" lon="5.00902">
        <ele>642.778809</ele>
        <time>2010-12-27T12:10:08Z</time>
      </trkpt>
      <trkpt lat="44.47998" lon="5.0089">
        <ele>646.143311</ele>
        <time>2010-12-27T12:10:08Z</time>
      </trkpt>
      <trkpt lat="44.4794" lon="5.00911">
        <ele>646.143311</ele>
        <time>2010-12-27T12:10:08Z</time>
      </trkpt>
      <trkpt lat="44.47872" lon="5.00874">
        <ele>670.17627</ele>
        <time>2010-12-27T12:10:08Z</time>
      </trkpt>
      <trkpt lat="44.478" lon="5.00884">
        <ele>678.828125</ele>
        <time>2010-12-27T12:10:08Z</time>
      </trkpt>
      <trkpt lat="44.47722" lon="5.00874">
        <ele>686.038086</ele>
        <time>2010-12-27T12:10:08Z</time>
      </trkpt>
      <trkpt lat="44.47667" lon="5.00871">
        <ele>686.999268</ele>
        <time>2010-12-27T12:10:08Z</time>
      </trkpt>
      <trkpt lat="44.47637" lon="5.0086">
        <ele>689.883301</ele>
        <time>2010-12-27T12:10:08Z</time>
      </trkpt>
      <trkpt lat="44.47555" lon="5.00866">
        <ele>683.153809</ele>
        <time>2010-12-27T12:10:08Z</time>
      </trkpt>
      <trkpt lat="44.47485" lon="5.00906">
        <ele>662.005127</ele>
        <time>2010-12-27T12:10:08Z</time>
      </trkpt>
      <trkpt lat="44.47418" lon="5.00929">
        <ele>646.143311</ele>
        <time>2010-12-27T12:10:08Z</time>
      </trkpt>
      <trkpt lat="44.47358" lon="5.00959">
        <ele>633.165283</ele>
        <time>2010-12-27T12:10:08Z</time>
      </trkpt>
      <trkpt lat="44.47293" lon="5.00986">
        <ele>633.165283</ele>
        <time>2010-12-27T12:10:08Z</time>
      </trkpt>
      <trkpt lat="44.47243" lon="5.00987">
        <ele>634.126709</ele>
        <time>2010-12-27T12:10:08Z</time>
      </trkpt>
      <trkpt lat="44.47201" lon="5.00949">
        <ele>636.049561</ele>
        <time>2010-12-27T12:10:08Z</time>
      </trkpt>
      <trkpt lat="44.47142" lon="5.00923">
        <ele>632.204102</ele>
        <time>2010-12-27T12:10:08Z</time>
      </trkpt>
      <trkpt lat="44.47077" lon="5.00939">
        <ele>630.762207</ele>
        <time>2010-12-27T12:10:08Z</time>
      </trkpt>
      <trkpt lat="44.47022" lon="5.00953">
        <ele>651.911133</ele>
        <time>2010-12-27T12:10:08Z</time>
      </trkpt>
      <trkpt lat="44.46966" lon="5.00987">
        <ele>663.92749</ele>
        <time>2010-12-27T12:10:08Z</time>
      </trkpt>
      <trkpt lat="44.46916" lon="5.00995">
        <ele>672.098877</ele>
        <time>2010-12-27T12:10:08Z</time>
      </trkpt>
      <trkpt lat="44.46862" lon="5.00986">
        <ele>673.060303</ele>
        <time>2010-12-27T12:10:08Z</time>
      </trkpt>
      <trkpt lat="44.46804" lon="5.01003">
        <ele>670.17627</ele>
        <time>2010-12-27T12:10:08Z</time>
      </trkpt>
      <trkpt lat="44.46725" lon="5.01039">
        <ele>662.005127</ele>
        <time>2010-12-27T12:10:08Z</time>
      </trkpt>
      <trkpt lat="44.46681" lon="5.01067">
        <ele>662.005127</ele>
        <time>2010-12-27T12:10:08Z</time>
      </trkpt>
      <trkpt lat="44.46633" lon="5.01108">
        <ele>649.988525</ele>
        <time>2010-12-27T12:10:08Z</time>
      </trkpt>
      <trkpt lat="44.46587" lon="5.01112">
        <ele>647.104492</ele>
        <time>2010-12-27T12:10:08Z</time>
      </trkpt>
      <trkpt lat="44.46558" lon="5.01128">
        <ele>645.181885</ele>
        <time>2010-12-27T12:10:08Z</time>
      </trkpt>
      <trkpt lat="44.46506" lon="5.01138">
        <ele>633.165283</ele>
        <time>2010-12-27T12:10:08Z</time>
      </trkpt>
      <trkpt lat="44.46468" lon="5.01157">
        <ele>619.226318</ele>
        <time>2010-12-27T12:10:08Z</time>
      </trkpt>
      <trkpt lat="44.46408" lon="5.0117">
        <ele>608.171387</ele>
        <time>2010-12-27T12:10:08Z</time>
      </trkpt>
      <trkpt lat="44.4636" lon="5.01195">
        <ele>598.077393</ele>
        <time>2010-12-27T12:10:08Z</time>
      </trkpt>
      <trkpt lat="44.46295" lon="5.01228">
        <ele>584.138184</ele>
        <time>2010-12-27T12:10:08Z</time>
      </trkpt>
      <trkpt lat="44.46246" lon="5.01266">
        <ele>571.1604</ele>
        <time>2010-12-27T12:10:08Z</time>
      </trkpt>
      <trkpt lat="44.46192" lon="5.01263">
        <ele>562.028076</ele>
        <time>2010-12-27T12:10:08Z</time>
      </trkpt>
      <trkpt lat="44.46135" lon="5.0126">
        <ele>550.011475</ele>
        <time>2010-12-27T12:10:08Z</time>
      </trkpt>
      <trkpt lat="44.46048" lon="5.01293">
        <ele>539.917603</ele>
        <time>2010-12-27T12:10:08Z</time>
      </trkpt>
      <trkpt lat="44.46019" lon="5.01298">
        <ele>536.072388</ele>
        <time>2010-12-27T12:10:08Z</time>
      </trkpt>
      <trkpt lat="44.45981" lon="5.01306">
        <ele>528.862549</ele>
        <time>2010-12-27T12:10:08Z</time>
      </trkpt>
      <trkpt lat="44.45952" lon="5.01292">
        <ele>526.939819</ele>
        <time>2010-12-27T12:10:08Z</time>
      </trkpt>
      <trkpt lat="44.45949" lon="5.01255">
        <ele>521.171997</ele>
        <time>2010-12-27T12:10:08Z</time>
      </trkpt>
      <trkpt lat="44.45938" lon="5.01251">
        <ele>517.807251</ele>
        <time>2010-12-27T12:10:08Z</time>
      </trkpt>
      <trkpt lat="44.45927" lon="5.01217">
        <ele>511.078003</ele>
        <time>2010-12-27T12:10:08Z</time>
      </trkpt>
      <trkpt lat="44.45905" lon="5.01226">
        <ele>510.116699</ele>
        <time>2010-12-27T12:10:08Z</time>
      </trkpt>
      <trkpt lat="44.4588" lon="5.01215">
        <ele>503.868164</ele>
        <time>2010-12-27T12:10:08Z</time>
      </trkpt>
      <trkpt lat="44.45861" lon="5.01201">
        <ele>499.061523</ele>
        <time>2010-12-27T12:10:08Z</time>
      </trkpt>
      <trkpt lat="44.45828" lon="5.01196">
        <ele>486.08374</ele>
        <time>2010-12-27T12:10:08Z</time>
      </trkpt>
      <trkpt lat="44.45818" lon="5.01102">
        <ele>483.199829</ele>
        <time>2010-12-27T12:10:08Z</time>
      </trkpt>
      <trkpt lat="44.45778" lon="5.01094">
        <ele>477.912476</ele>
        <time>2010-12-27T12:10:08Z</time>
      </trkpt>
      <trkpt lat="44.45771" lon="5.01077">
        <ele>474.067261</ele>
        <time>2010-12-27T12:10:08Z</time>
      </trkpt>
      <trkpt lat="44.4574" lon="5.01072">
        <ele>468.780029</ele>
        <time>2010-12-27T12:10:08Z</time>
      </trkpt>
      <trkpt lat="44.45679" lon="5.01136">
        <ele>465.896118</ele>
        <time>2010-12-27T12:10:08Z</time>
      </trkpt>
      <trkpt lat="44.45629" lon="5.011">
        <ele>452.918213</ele>
        <time>2010-12-27T12:10:08Z</time>
      </trkpt>
      <trkpt lat="44.45567" lon="5.01127">
        <ele>442.824463</ele>
        <time>2010-12-27T12:10:08Z</time>
      </trkpt>
      <trkpt lat="44.45536" lon="5.01132">
        <ele>438.017822</ele>
        <time>2010-12-27T12:10:08Z</time>
      </trkpt>
      <trkpt lat="44.45458" lon="5.01105">
        <ele>422.156006</ele>
        <time>2010-12-27T12:10:08Z</time>
      </trkpt>
      <trkpt lat="44.45418" lon="5.011">
        <ele>414.946167</ele>
        <time>2010-12-27T12:10:08Z</time>
      </trkpt>
      <trkpt lat="44.45387" lon="5.01072">
        <ele>411.100952</ele>
        <time>2010-12-27T12:10:08Z</time>
      </trkpt>
      <trkpt lat="44.45334" lon="5.01096">
        <ele>399.084351</ele>
        <time>2010-12-27T12:10:08Z</time>
      </trkpt>
      <trkpt lat="44.45316" lon="5.01065">
        <ele>401.968506</ele>
        <time>2010-12-27T12:10:08Z</time>
      </trkpt>
      <trkpt lat="44.45304" lon="5.01078">
        <ele>398.123169</ele>
        <time>2010-12-27T12:10:08Z</time>
      </trkpt>
      <trkpt lat="44.45281" lon="5.0112">
        <ele>388.990601</ele>
        <time>2010-12-27T12:10:08Z</time>
      </trkpt>
      <trkpt lat="44.4524" lon="5.01141">
        <ele>380.819458</ele>
        <time>2010-12-27T12:10:08Z</time>
      </trkpt>
      <trkpt lat="44.45246" lon="5.01218">
        <ele>361.112427</ele>
        <time>2010-12-27T12:10:08Z</time>
      </trkpt>
      <trkpt lat="44.45225" lon="5.01274">
        <ele>341.885986</ele>
        <time>2010-12-27T12:10:08Z</time>
      </trkpt>
      <trkpt lat="44.45198" lon="5.01322">
        <ele>326.985596</ele>
        <time>2010-12-27T12:10:08Z</time>
      </trkpt>
      <trkpt lat="44.45233" lon="5.01337">
        <ele>328.908325</ele>
        <time>2010-12-27T12:10:08Z</time>
      </trkpt>
      <trkpt lat="44.45275" lon="5.01382">
        <ele>325.062988</ele>
        <time>2010-12-27T12:10:08Z</time>
      </trkpt>
      <trkpt lat="44.45341" lon="5.01409">
        <ele>326.02417</ele>
        <time>2010-12-27T12:10:08Z</time>
      </trkpt>
      <trkpt lat="44.4536" lon="5.0141">
        <ele>327.946777</ele>
        <time>2010-12-27T12:10:08Z</time>
      </trkpt>
      <trkpt lat="44.4542" lon="5.01469">
        <ele>322.178955</ele>
        <time>2010-12-27T12:10:08Z</time>
      </trkpt>
      <trkpt lat="44.4549" lon="5.01545">
        <ele>318.814331</ele>
        <time>2010-12-27T12:10:08Z</time>
      </trkpt>
      <trkpt lat="44.45514" lon="5.01537">
        <ele>322.178955</ele>
        <time>2010-12-27T12:10:08Z</time>
      </trkpt>
      <trkpt lat="44.45545" lon="5.01541">
        <ele>325.062988</ele>
        <time>2010-12-27T12:10:08Z</time>
      </trkpt>
      <trkpt lat="44.45566" lon="5.01566">
        <ele>324.101563</ele>
        <time>2010-12-27T12:10:08Z</time>
      </trkpt>
      <trkpt lat="44.45592" lon="5.01567">
        <ele>327.946777</ele>
        <time>2010-12-27T12:10:08Z</time>
      </trkpt>
      <trkpt lat="44.45622" lon="5.01605">
        <ele>324.101563</ele>
        <time>2010-12-27T12:10:08Z</time>
      </trkpt>
      <trkpt lat="44.45655" lon="5.01603">
        <ele>327.946777</ele>
        <time>2010-12-27T12:10:08Z</time>
      </trkpt>
      <trkpt lat="44.45837" lon="5.01672">
        <ele>330.830933</ele>
        <time>2010-12-27T12:10:08Z</time>
      </trkpt>
      <trkpt lat="44.45948" lon="5.01711">
        <ele>331.792114</ele>
        <time>2010-12-27T12:10:08Z</time>
      </trkpt>
      <trkpt lat="44.45973" lon="5.01749">
        <ele>326.02417</ele>
        <time>2010-12-27T12:10:08Z</time>
      </trkpt>
      <trkpt lat="44.46004" lon="5.0176">
        <ele>328.908325</ele>
        <time>2010-12-27T12:10:08Z</time>
      </trkpt>
      <trkpt lat="44.46115" lon="5.01779">
        <ele>324.101563</ele>
        <time>2010-12-27T12:10:08Z</time>
      </trkpt>
      <trkpt lat="44.46188" lon="5.01809">
        <ele>326.02417</ele>
        <time>2010-12-27T12:10:08Z</time>
      </trkpt>
      <trkpt lat="44.46226" lon="5.01827">
        <ele>323.140381</ele>
        <time>2010-12-27T12:10:08Z</time>
      </trkpt>
      <trkpt lat="44.46348" lon="5.01786">
        <ele>330.830933</ele>
        <time>2010-12-27T12:10:08Z</time>
      </trkpt>
      <trkpt lat="44.46369" lon="5.01834">
        <ele>323.140381</ele>
        <time>2010-12-27T12:10:08Z</time>
      </trkpt>
      <trkpt lat="44.46495" lon="5.01916">
        <ele>322.178955</ele>
        <time>2010-12-27T12:10:08Z</time>
      </trkpt>
      <trkpt lat="44.46532" lon="5.01945">
        <ele>322.178955</ele>
        <time>2010-12-27T12:10:08Z</time>
      </trkpt>
      <trkpt lat="44.46556" lon="5.01999">
        <ele>321.217773</ele>
        <time>2010-12-27T12:10:08Z</time>
      </trkpt>
      <trkpt lat="44.46592" lon="5.02017">
        <ele>319.775635</ele>
        <time>2010-12-27T12:10:08Z</time>
      </trkpt>
      <trkpt lat="44.46632" lon="5.02013">
        <ele>322.178955</ele>
        <time>2010-12-27T12:10:08Z</time>
      </trkpt>
      <trkpt lat="44.46665" lon="5.02021">
        <ele>322.178955</ele>
        <time>2010-12-27T12:10:08Z</time>
      </trkpt>
      <trkpt lat="44.46667" lon="5.02041">
        <ele>321.217773</ele>
        <time>2010-12-27T12:10:08Z</time>
      </trkpt>
      <trkpt lat="44.4671" lon="5.02043">
        <ele>321.217773</ele>
        <time>2010-12-27T12:10:08Z</time>
      </trkpt>
      <trkpt lat="44.46788" lon="5.01974">
        <ele>326.02417</ele>
        <time>2010-12-27T12:10:08Z</time>
      </trkpt>
      <trkpt lat="44.46912" lon="5.0193">
        <ele>329.869507</ele>
        <time>2010-12-27T12:10:08Z</time>
      </trkpt>
      <trkpt lat="44.46984" lon="5.0192">
        <ele>334.195435</ele>
        <time>2010-12-27T12:10:08Z</time>
      </trkpt>
      <trkpt lat="44.47074" lon="5.01944">
        <ele>335.156738</ele>
        <time>2010-12-27T12:10:08Z</time>
      </trkpt>
      <trkpt lat="44.47259" lon="5.02056">
        <ele>338.040771</ele>
        <time>2010-12-27T12:10:08Z</time>
      </trkpt>
      <trkpt lat="44.47299" lon="5.02094">
        <ele>337.079468</ele>
        <time>2010-12-27T12:10:08Z</time>
      </trkpt>
      <trkpt lat="44.47338" lon="5.02146">
        <ele>335.156738</ele>
        <time>2010-12-27T12:10:08Z</time>
      </trkpt>
      <trkpt lat="44.47395" lon="5.02072">
        <ele>347.173218</ele>
        <time>2010-12-27T12:10:08Z</time>
      </trkpt>
      <trkpt lat="44.47451" lon="5.02115">
        <ele>346.212036</ele>
        <time>2010-12-27T12:10:08Z</time>
      </trkpt>
      <trkpt lat="44.47498" lon="5.0214">
        <ele>344.77002</ele>
        <time>2010-12-27T12:10:08Z</time>
      </trkpt>
      <trkpt lat="44.47571" lon="5.02174">
        <ele>348.134644</ele>
        <time>2010-12-27T12:10:08Z</time>
      </trkpt>
      <trkpt lat="44.47665" lon="5.02215">
        <ele>350.057251</ele>
        <time>2010-12-27T12:10:08Z</time>
      </trkpt>
      <trkpt lat="44.47678" lon="5.02206">
        <ele>351.018433</ele>
        <time>2010-12-27T12:10:08Z</time>
      </trkpt>
      <trkpt lat="44.47785" lon="5.02297">
        <ele>344.77002</ele>
        <time>2010-12-27T12:10:08Z</time>
      </trkpt>
      <trkpt lat="44.47822" lon="5.02326">
        <ele>342.84729</ele>
        <time>2010-12-27T12:10:08Z</time>
      </trkpt>
      <trkpt lat="44.47851" lon="5.02327">
        <ele>348.134644</ele>
        <time>2010-12-27T12:10:08Z</time>
      </trkpt>
      <trkpt lat="44.47867" lon="5.02351">
        <ele>347.173218</ele>
        <time>2010-12-27T12:10:08Z</time>
      </trkpt>
      <trkpt lat="44.47884" lon="5.02412">
        <ele>343.808594</ele>
        <time>2010-12-27T12:10:08Z</time>
      </trkpt>
      <trkpt lat="44.47995" lon="5.0256">
        <ele>346.212036</ele>
        <time>2010-12-27T12:10:08Z</time>
      </trkpt>
      <trkpt lat="44.48059" lon="5.02653">
        <ele>344.77002</ele>
        <time>2010-12-27T12:10:08Z</time>
      </trkpt>
      <trkpt lat="44.48071" lon="5.02683">
        <ele>344.77002</ele>
        <time>2010-12-27T12:10:08Z</time>
      </trkpt>
      <trkpt lat="44.48062" lon="5.0274">
        <ele>342.84729</ele>
        <time>2010-12-27T12:10:08Z</time>
      </trkpt>
      <trkpt lat="44.48018" lon="5.02781">
        <ele>340.924683</ele>
        <time>2010-12-27T12:10:08Z</time>
      </trkpt>
      <trkpt lat="44.47988" lon="5.02863">
        <ele>343.808594</ele>
        <time>2010-12-27T12:10:08Z</time>
      </trkpt>
      <trkpt lat="44.47882" lon="5.02881">
        <ele>352.941162</ele>
        <time>2010-12-27T12:10:08Z</time>
      </trkpt>
      <trkpt lat="44.47842" lon="5.02896">
        <ele>356.786377</ele>
        <time>2010-12-27T12:10:08Z</time>
      </trkpt>
      <trkpt lat="44.47806" lon="5.02874">
        <ele>354.86377</ele>
        <time>2010-12-27T12:10:08Z</time>
      </trkpt>
    </trkseg>
  </trk>
</gpx>